DW0479 Weather Reports


time (UTC)temp
C
wind
direction
speed
KPH
gust
KPH
rain 1hr
cm
rain 24hr
cm
rain mn
cm
humidity
%
barometer
mb
20260505101514 16 48 0.0 0.0 0.00 0.00 0.00 93 1014.9
20260505100512 16 48 0.0 0.0 0.00 0.00 0.00 93 1014.7
20260505095510 16 48 0.0 0.0 0.00 0.00 0.00 93 1014.6
20260505094943 16 48 0.0 0.0 0.00 0.00 0.00 93 1014.5
20260505093511 16 48 0.0 0.0 0.00 0.00 0.00 93 1014.4
20260505092510 16 48 0.0 0.0 0.00 0.00 0.00 93 1014.4
20260505091945 17 48 0.0 0.0 0.00 0.00 0.00 93 1014.6
20260505090515 17 48 0.0 3.2 0.00 0.00 0.00 93 1014.3
20260505085501 17 48 0.0 1.6 0.00 0.00 0.00 93 1014.3
20260505084500 17 48 0.0 1.6 0.00 0.00 0.00 93 1014.3
20260505083501 17 48 0.0 1.6 0.00 0.00 0.00 92 1014.3
20260505082502 17 48 0.0 1.6 0.00 0.00 0.00 92 1014.3
20260505081501 17 48 0.0 0.0 0.00 0.00 0.00 92 1014.3
20260505080926 17 48 0.0 0.0 0.00 0.00 0.00 92 1014.3
20260505075451 17 48 0.0 0.0 0.00 0.00 0.00 91 1014.4
20260505074941 17 48 0.0 0.0 0.00 0.00 0.00 91 1014.3
20260505073450 17 48 0.0 1.6 0.00 0.00 0.00 91 1014.5
20260505072452 17 48 0.0 4.8 0.00 0.00 0.00 91 1014.6
20260505071451 17 48 1.6 4.8 0.00 0.00 0.00 91 1014.4
20260505070448 17 48 0.0 3.2 0.00 0.00 0.00 90 1014.6
20260505065449 17 48 0.0 0.0 0.00 0.00 0.00 90 1014.6
20260505064448 17 48 0.0 0.0 0.00 0.00 0.00 89 1014.9
20260505063939 18 48 0.0 1.6 0.00 0.00 0.00 88 1014.9
20260505062921 18 48 0.0 3.2 0.00 0.00 0.00 88 1015.0
20260505061450 18 48 1.6 3.2 0.00 0.00 0.00 87 1015.1
20260505060446 18 48 0.0 3.2 0.00 0.00 0.00 86 1015.3
20260505055447 18 48 1.6 3.2 0.00 0.00 0.00 86 1015.4
20260505054447 18 48 0.0 3.2 0.00 0.00 0.00 86 1015.5
20260505053448 18 48 0.0 3.2 0.00 0.00 0.00 85 1015.6
20260505052446 19 48 0.0 3.2 0.00 0.00 0.00 85 1015.8
20260505051434 19 48 0.0 0.0 0.00 0.00 0.00 84 1015.9
20260505050434 19 48 0.0 3.2 0.00 0.00 0.00 85 1016.1
20260505041433 20 10 3.2 6.4 0.00 0.00 0.00 83 1016.1
20260505040433 19 82 1.6 4.8 0.00 0.00 0.00 84 1016.0
20260505035430 19 82 1.6 4.8 0.00 0.00 0.00 83 1016.2
20260505034431 19 82 1.6 3.2 0.00 0.00 0.00 83 1016.1
20260505033432 19 82 1.6 3.2 0.00 0.00 0.00 82 1016.3
20260505032903 20 82 1.6 4.8 0.00 0.00 0.00 82 1016.2
20260505031427 20 82 1.6 4.8 0.00 0.00 0.00 81 1016.2
20260505030428 20 82 1.6 6.4 0.00 0.00 0.00 81 1016.2
20260505025428 20 80 1.6 4.8 0.00 0.00 0.00 80 1016.2
20260505024427 20 81 1.6 6.4 0.00 0.00 0.00 79 1016.2
20260505023427 21 81 3.2 8.0 0.00 0.00 0.00 78 1016.1
20260505022420 21 94 3.2 6.4 0.00 0.00 0.00 78 1016.2
20260505021902 21 81 4.8 12.9 0.00 0.00 0.00 76 1016.0
20260505020419 21 100 4.8 14.5 0.00 0.00 0.00 76 1016.1
20260505015408 21 87 4.8 8.0 0.00 0.00 0.00 76 1016.0
20260505014402 21 67 3.2 6.4 0.00 0.00 0.00 75 1016.0
20260505013400 21 108 4.8 12.9 0.00 0.00 0.00 74 1015.8
20260505012350 21 85 3.2 8.0 0.00 0.00 0.00 73 1015.7
20260505011355 22 104 3.2 9.7 0.00 0.00 0.00 73 1015.5
20260505010344 22 89 4.8 14.5 0.00 0.00 0.00 72 1015.6
20260505005341 22 102 6.4 12.9 0.00 0.00 0.00 70 1015.6
20260505004338 22 75 4.8 12.9 0.00 0.00 0.00 69 1015.6
20260505003341 22 88 4.8 14.5 0.00 0.00 0.00 69 1015.4
20260505002334 23 113 6.4 16.1 0.00 0.00 0.00 68 1015.1
20260505001335 23 116 8.0 16.1 0.00 0.00 0.00 67 1015.0
20260505000815 23 109 9.7 20.9 0.00 0.00 0.00 66 1015.1
20260504235829 23 42 8.0 17.7 0.00 0.00 0.00 65 1015.0
20260504234322 24 98 6.4 20.9 0.00 0.00 0.00 64 1014.7
20260504233319 24 93 9.7 20.9 0.00 0.00 0.00 64 1014.5
20260504232321 25 106 9.7 17.7 0.00 0.00 0.00 63 1014.6
20260504231759 25 125 9.7 20.9 0.00 0.00 0.00 62 1014.5
20260504231237 25 90 6.4 20.9 0.00 0.00 0.00 61 1014.5
20260504225322 25 96 9.7 25.7 0.00 0.00 0.00 61 1014.5
20260504224322 25 120 11.3 27.4 0.00 0.00 0.00 61 1014.6
20260504223317 25 106 9.7 24.1 0.00 0.00 0.00 61 1014.7
20260504222318 25 113 11.3 24.1 0.00 0.00 0.00 60 1014.6
20260504221317 26 94 12.9 27.4 0.00 0.00 0.00 58 1014.5
20260504220317 26 121 12.9 27.4 0.00 0.00 0.00 59 1014.4
20260504215319 26 89 11.3 25.7 0.00 0.00 0.00 57 1014.5
20260504214316 26 121 11.3 27.4 0.00 0.00 0.00 56 1014.4
20260504213316 26 64 11.3 24.1 0.00 0.00 0.00 59 1014.4
20260504212316 27 112 12.9 25.7 0.00 0.00 0.00 57 1014.3
20260504211315 27 102 12.9 25.7 0.00 0.00 0.00 55 1014.4
20260504210315 27 99 11.3 24.1 0.00 0.00 0.00 56 1014.4
20260504205313 27 129 11.3 22.5 0.00 0.00 0.00 57 1014.4
20260504204314 27 115 12.9 25.7 0.00 0.00 0.00 56 1014.5
20260504203316 27 95 12.9 24.1 0.00 0.00 0.00 54 1014.5
20260504202300 27 89 11.3 25.7 0.00 0.00 0.00 56 1014.6
20260504201740 27 116 12.9 24.1 0.00 0.00 0.00 54 1014.7
20260504200257 28 92 12.9 25.7 0.00 0.00 0.00 54 1014.7
20260504195258 28 103 12.9 29.0 0.00 0.00 0.00 54 1014.9
20260504194257 27 94 11.3 29.0 0.00 0.00 0.00 56 1015.0
20260504193258 27 89 11.3 27.4 0.00 0.00 0.00 55 1015.0
20260504192258 27 118 11.3 29.0 0.00 0.00 0.00 55 1015.1
20260504191259 27 108 14.5 27.4 0.00 0.00 0.00 55 1015.2
20260504190258 28 102 11.3 25.7 0.00 0.00 0.00 53 1015.3
20260504185258 28 109 9.7 19.3 0.00 0.00 0.00 53 1015.4
20260504184258 28 127 9.7 25.7 0.00 0.00 0.00 52 1015.7
20260504183257 28 84 9.7 22.5 0.00 0.00 0.00 52 1015.6
20260504182259 27 123 11.3 25.7 0.00 0.00 0.00 56 1015.9
20260504181258 27 116 9.7 25.7 0.00 0.00 0.00 54 1015.9
20260504180731 27 138 9.7 22.5 0.00 0.00 0.00 54 1016.1
20260504175259 28 64 9.7 27.4 0.00 0.00 0.00 53 1016.2
20260504174734 27 101 8.0 19.3 0.00 0.00 0.00 54 1016.2
20260504173249 27 50 8.0 20.9 0.00 0.00 0.00 55 1016.2
20260504172244 27 107 9.7 20.9 0.00 0.00 0.00 53 1016.3
20260504171233 28 46 11.3 25.7 0.00 0.00 0.00 51 1016.5
20260504170231 28 129 11.3 22.5 0.00 0.00 0.00 49 1016.6
20260504160215 27 123 11.3 20.9 0.00 0.00 0.00 54 1017.1
20260504150214 27 54 11.3 25.7 0.00 0.00 0.00 55 1017.2
20260504141210 25 29 12.9 24.1 0.00 0.00 0.00 63 1017.1
20260504140210 25 19 11.3 29.0 0.00 0.00 0.00 63 1017.0
20260504130159 22 56 9.7 20.9 0.00 0.00 0.00 72 1016.7
20260504120151 20 40 6.4 14.5 0.00 0.00 0.00 83 1016.4
20260504110144 18 26 6.4 12.9 0.00 0.00 0.00 88 1015.8